Regional Weather Roundup
Issued by NWS Green Bay, WI

Home | Current Version | Previous Version | Text Only | Print | Product List | Glossary On
Versions: 1 2 3 4 5 6 7 8 9 10 11 12 13 14 15 16 17 18 19 20 21 22 23 24 25 26 27 28 29 30 31 32 33 34 35 36 37 38 39 40 41 42 43 44 45 46 47 48 49 50
000
ASUS43 KGRB 012200
RWRGRB

NORTH-CENTRAL AND NORTHEAST WISCONSIN REGIONAL WEATHER ROUNDUP
NATIONAL WEATHER SERVICE GREEN BAY WI
500 PM CDT TUE SEP 01 2015

WIZ005-009-010>012-018-019-012300-
NORTH CENTRAL WISCONSIN

CITY           SKY/WX    TMP DP  RH WIND       PRES   REMARKS
IRONWOOD       MOSUNNY   82  72  69 S5        29.88S
MANITOWISH WTR NOT AVBL
ARBOR VITAE    NOT AVBL
EAGLE RIVER    NOT AVBL
LAND O LAKES   NOT AVBL
RHINELANDER    PTSUNNY   81  67  62 W5        29.96F
PHILLIPS       NOT AVBL
ANTIGO         NOT AVBL
TOMAHAWK       NOT AVBL
MERRILL        NOT AVBL
$$

WIZ013-073-012300-
NORTHEAST WISCONSIN

CITY           SKY/WX    TMP DP  RH WIND       PRES   REMARKS
IRON MOUNTAIN  MOSUNNY   86  67  52 SW8       29.92S
MARINETTE      PTSUNNY   82  70  65 S8        29.91R
$$

WIZ017-030-035>037-045-012300-
CENTRAL WISCONSIN

CITY           SKY/WX    TMP DP  RH WIND       PRES   REMARKS
MEDFORD        NOT AVBL
WAUSAU         MOSUNNY   85  69  58 S6        29.92F
MOSINEE        NOT AVBL
MARSHFIELD     PTSUNNY   86  69  56 SW7       29.94S HX  90
WISC RAPIDS    MOSUNNY   86  68  54 S9        29.94F
STEVENS POINT  NOT AVBL
WAUPACA        NOT AVBL
SHAWANO        NOT AVBL
CLINTONVILLE   NOT AVBL
WAUTOMA        NOT AVBL
$$

WIZ038-039-048-051-012300-
FOX VALLEY

CITY           SKY/WX    TMP DP  RH WIND       PRES   REMARKS
NWS GREEN BAY  MOSUNNY   85  71  63 SW7       29.93S HX  90
APPLETON       PTSUNNY   86  64  48 SW9       29.93F
OSHKOSH        MOSUNNY   85  71  63 S10       29.94S HX  90
FOND DU LAC    MOSUNNY   86  70  58 SW9       29.95S HX  90
$$

WIZ022-050-052-012300-
EAST CENTRAL WISCONSIN

CITY           SKY/WX    TMP DP  RH WIND       PRES   REMARKS
EPHRAIM        NOT AVBL
STURGEON BAY   MOSUNNY   82  72  69 S7        29.96S
MANITOWOC      NOT AVBL
SHEBOYGAN      SUNNY     85  72  65 S7        29.95F HX  91
$$

LMZ563-521-522-541>543-012300-
LAKESHORE

STATION/POSITION TIME  TEMP    WIND        PRES    VSBY  WAVE
                       AIR SEA DIR/SP/G                  HT/PER
                 (UTC) (F)     (DEG/KT/KT) (MB)    (MI)  (FT/S)
SHEBOYGAN LKSHOR 2100   71     180/ 22/ 23 1014.3F
KEWAUNEE LKSHORE 2100   55     170/ 11/ 13 1013.1F
ALGOMA MARINA    2114          170/  1/  4   N/A
NORTHPORT PIER   2100   76     160/  8/ 12 1013.2F
N MID LAKE BUOY  2050   67 65  210/ 12/ 14 1013.6F         2/ 4
S GREEN BAY BUOY 2130   73 67  200/  6/  8 1014.7F
SISTER BAY LKSHO 2104   83     170/ 13/ 15   N/A
CHAMBERS ISLAND  2100   82     130/  5/  9 1012.9F
MENOMINEE LKSHOR 2100   69     140/ 14/ 16 1011.8F
$$


USA.gov is the U.S. government's official web portal to all federal, state and local government web resources and services.